Miscellaneous Local Product
Issued by NWS North Platte, NE

Home | Current Version | Previous Version | Text Only | Print | Product List | Glossary On
Versions: 1 2 3 4 5 6 7 8 9 10 11 12 13 14 15 16 17 18 19 20 21 22 23 24 25 26 27 28 29 30 31 32 33 34 35 36 37 38 39 40 41 42 43 44 45 46 47 48 49 50
427
AXUS43 KLBF 221010
MISLBF


WESTERN AND NORTH CENTRAL NEBRASKA HOURLY WEATHER ROUNDUP
NATIONAL WEATHER SERVICE NORTH PLATTE NE
500 AM CDT FRI MAY 22 2015

***STATIONS NOT REPORTING VARIABLES SUCH AS SKY/WEATHER OR
PRESSURE ARE PROVIDED BY THE NEBRASKA DEPARTMENT OF
ROADS...RAWS...AND APRS NETWORKS...AND ARE NOT UNDER
NATIONAL WEATHER SERVICE QUALITY CONTROL***

...OBSERVATIONS IN AND NEAR THE EASTERN PANHANDLE OF NEBRASKA...

CITY           SKY/WX    TMP DP  RH WIND       PRES   REMARKS
PINE RIDGE     CLOUDY    52  42  69 SE13      30.11F
CHADRON        CLOUDY    52  43  71 S14       30.09S
ALLIANCE       CLOUDY    49  44  83 SE10      30.09F
SIDNEY         CLOUDY    47  43  86 SE8       30.09F
WHITECLAY        N/A     47  42  81 E6          N/A
BIG SPRINGS      N/A     49  46  89 SE10        N/A
$$

...OBSERVATIONS IN NORTH CENTRAL NEBRASKA...

CITY           SKY/WX    TMP DP  RH WIND       PRES   REMARKS
VALENTINE      CLEAR     46  39  76 S10       30.16S
THEDFORD       PTCLDY    44  39  83 CALM      30.17S
AINSWORTH      CLEAR     41  37  88 S7        30.17S
O`NEILL        CLEAR     43  35  73 SW5       30.18S
ORD            PTCLDY    37  35  92 SW3       30.19R
BROKEN BOW     MOCLDY    42  39  89 NE3       30.17F
BROWNLEE         N/A     47  40  76 S7          N/A
BREWSTER         N/A     39  36  90 CALM        N/A
ROSE             N/A     47  38  73 CALM        N/A
NEWPORT          N/A     39  35  87 CALM        N/A
COMSTOCK         N/A     43  40  86 CALM        N/A
$$

...OBSERVATIONS IN SOUTHWEST NEBRASKA AND FAR NORTHEAST COLORADO...

CITY           SKY/WX    TMP DP  RH WIND       PRES   REMARKS
WRAY           CLOUDY    50  46  85 SE10      30.10F
IMPERIAL       CLOUDY    48  43  82 SE8       30.12F
OGALLALA       CLOUDY    47  45  90 E5        30.12F
NORTH PLATTE   CLOUDY    44  41  89 E6        30.15F
MCCOOK         CLOUDY    48  43  82 SE8       30.15F
LEXINGTON      CLOUDY    43  41  90 SE5       30.18S
PAXTON           N/A     47  44  89 E3          N/A
GOTHENBURG       N/A     45  39  80 CALM        N/A
CALLAWAY         N/A     43  40  89 SE5         N/A
$$

...NORTH PLATTE AREA...

CITY           SKY/WX    TMP DP  RH WIND       PRES   REMARKS
AIRPORT        CLOUDY    44  41  89 E6        30.15F
$$

...SOME WEATHER OBSERVATIONS FROM AROUND THE REGION...

CITY           SKY/WX    TMP DP  RH WIND       PRES   REMARKS
DENVER         CLOUDY    47  44  90 SE12      30.01F
LARAMIE        LGT RAIN  42  41  96 SE14      30.02F
CHEYENNE       FOG       43  42  97 SE16      30.04F VSB 3/4
SCOTTSBLUFF    CLOUDY    49  45  86 E7        30.08F
RAPID CITY     CLOUDY    49  45  86 SE5       30.10S
PIERRE         CLEAR     41  35  79 E5        30.14R
WINNER         FAIR      50  35  56 SW8       30.16S
SIOUX FALLS    CLEAR     43  40  89 CALM      30.18R
OMAHA          PTCLDY    52  44  74 CALM      30.20R
GRAND ISLAND   CLOUDY    46  41  82 S3        30.20S
KANSAS CITY    MOCLDY    53  44  71 NW5       30.22R
WICHITA        CLOUDY    53  47  79 E5        30.19F
HAYS           CLOUDY    50  43  76 E3        30.16F
LIBERAL        CLOUDY    52  46  82 SE10      30.12F
GOODLAND       RAIN      47  46  97 SE15      30.11F
$$



USA.gov is the U.S. government's official web portal to all federal, state and local government web resources and services.